Location: Tamazert
(32.6352°N, 5.2072°W)
Time: 03:48:17
(UTC+00:00)

Vanguard 2 - Pass Details

Date: 06 October 2022
Orbit: 553 x 2933 km, 32.9° (Epoch: 04 December)

Event Time Altitude Azimuth Distance (km) Brightness Sun altitude
Rises 15:49:40 0° 280° (W) 5,299 12.6 25.4°
Reaches altitude 10° 15:52:41 10° 279° (W) 4,565 12.5 24.8°
Maximum altitude 16:06:38 83° 195° (SSW) 2,735 10.8 22.1°
Drops below altitude 10° 16:24:47 10° 110° (ESE) 5,723 11.6 18.6°
Sets 16:29:04 0° 110° (ESE) 6,647 11.8 17.7°
